User: anonymous
Location: Unspecified
(0.0000°N, 0.0000°E)
Time: 00:55:06
(UTC+02:00)
Language:

Cosmos 1833 Rocket - Orbit

View from above orbital plane
View from above orbital plane
View from above satellite
View from above satellite

Ground track
Ground track

The orbit data is extracted from the following two-line orbital elements,

1 17590U 87027B   14209.46990036  .00000021  00000-0  34596-4 0  7351
2 17590 071.0023 210.8053 0002901 121.6154 238.5253 14.16645360414742
Epoch (UTC): 28 July 2014 11:16:39
Eccentricity: 0.0002901
inclination: 71.0023°
perigee height: 834 km
apogee height: 839 km
right ascension of ascending node: 210.8053°
argument of perigee: 121.6154°
revolutions per day: 14.16645360
mean anomaly at epoch: 238.5253°
orbit number at epoch: 41474

The dashed part of the orbit path shows where the satellite is in the earth's shadow,  

DLR